Location: Reevesville
(37.3431°N, 88.7198°W)
Time: 14:50:10
(UTC+00:00)

Daily predictions for brighter satellites

Satellite Brightness Start Highest point End
(mag) Time Altitude Azimuth Time Altitude Azimuth Time Altitude Azimuth
ERS-2 4.1 12:01:19 10° WSW 12:02:18 11° W 12:02:52 11° W
ASTRO E2 4.2 12:01:33 10° WSW 12:05:00 29° S 12:08:28 10° SE
Meteor 2-6 Rocket 4.3 12:00:09 10° N 12:05:33 80° E 12:11:00 10° S
Cosmos 158 Rocket 3.9 12:01:02 10° NNW 12:05:52 60° WSW 12:10:46 10° S
Cosmos 2112 Rocket 4.1 12:02:28 10° NNW 12:07:51 89° ENE 12:13:11 10° SSE
Cosmos 1862 3.3 12:04:01 10° SSW 12:08:02 75° W 12:12:07 10° N
PAYLOAD B 4.3 12:03:59 10° NNE 12:09:31 88° WNW 12:15:01 10° SSW
Cosmos 2154 Rocket 4.0 12:03:30 10° S 12:09:42 88° W 12:15:58 10° N
BREEZE-M DEB (TANK) 4.2 12:05:26 10° WSW 12:10:05 78° NNW 12:19:34 10° ENE
Cosmos 1844 Rocket 2.7 12:05:16 10° SSW 12:10:53 72° WNW 12:16:34 10° NNE
SMAP 3.3 12:07:07 10° NNE 12:11:48 76° ESE 12:16:26 10° S
Cosmos 1844 3.7 12:07:00 10° SSW 12:12:34 87° WNW 12:18:09 10° NNE
CZ-4B DEB 4.2 12:07:57 10° N 12:13:22 66° WNW 12:18:46 10° SSW
Cosmos 1805 Rocket 3.9 12:10:57 10° S 12:15:21 73° E 12:19:47 10° NNE
Cosmos 1898 Rocket 3.8 12:12:07 10° SW 12:17:11 45° WNW 12:22:18 10° N
NOSS 3-4 (A) 4.5 12:14:40 10° W 12:19:18 23° NW 12:24:12 10° N
NOSS 3-4 (C) 4.5 12:14:46 10° W 12:19:25 23° NW 12:24:20 10° N
Cosmos 1867 3.9 22:57:28 10° S 23:02:41 51° ESE 23:07:57 10° NE
ADEOS Rocket 4.0 22:57:14 10° N 23:04:56 70° WNW 23:12:34 10° SSW
Cosmos 2221 3.8 23:01:10 10° SSW 23:05:20 45° W 23:09:30 10° N
Cosmos 1606 3.2 23:03:03 10° SSE 23:06:41 40° E 23:10:20 10° NNE
Cosmos 2154 Rocket 4.0 23:02:26 10° N 23:08:47 72° E 23:15:06 10° SSE
Cosmos 2298 Rocket 4.0 23:03:28 10° NNW 23:08:48 80° ENE 23:14:07 10° SSE
Cosmos 1933 4.5 23:06:13 10° SE 23:09:27 24° E 23:12:42 10° NE
Cosmos 2150 Rocket 3.9 23:04:29 10° NNW 23:09:39 75° ENE 23:14:46 10° SSE
SMAP 3.1 23:08:00 10° SSE 23:12:34 59° ENE 23:17:09 10° N
Cosmos 1818 3.6 23:08:16 10° NNW 23:13:41 60° ENE 23:19:03 10° SE
CRYOSAT 2 4.4 23:09:38 10° N 23:14:30 67° E 23:19:22 10° S
Cosmos 1943 Rocket 3.8 23:14:05 10° NNE 23:16:31 13° NE 23:18:57 10° ENE
Cosmos 2341 Rocket 4.3 23:13:35 10° N 23:19:36 45° ENE 23:25:36 10° SSE
USA 215 3.3 23:14:02 10° NE 23:20:37 84° SE 23:27:10 10° SW
Cosmos 1125 Rocket 3.5 23:15:32 10° NNW 23:20:42 65° ENE 23:25:52 10° SSE
Cosmos 1500 Rocket 4.2 23:16:42 10° NNW 23:21:03 60° W 23:25:24 10° S
H-2A R/B 3.2 23:18:15 10° S 23:22:35 62° WSW 23:26:48 10° NNW
Cosmos 1782 4.4 23:21:10 10° ESE 23:23:30 15° E 23:25:18 12° ENE
SL-16 R/B 2.5 23:19:19 10° S 23:24:43 48° ESE 23:30:08 10° NE
Meteor 1-4 Rocket 4.3 23:23:11 10° SE 23:25:19 15° E 23:26:26 13° ENE
ERS-2 2.2 23:28:54 10° NNE 23:32:30 56° ESE 23:36:05 10° S
Cosmos 1689 Rocket 3.5 23:32:45 17° ENE 23:33:32 19° E 23:35:44 10° SE
BREEZE-M DEB (TANK) 3.7 23:32:08 10° W 23:34:44 24° NW 23:36:11 12° NNE
Meteor 2-12 Rocket 4.4 23:32:12 10° N 23:38:21 73° E 23:44:26 10° SSE
SL-8 Rocket 4.2 23:33:12 10° N 23:39:13 48° E 23:45:15 10° SSE
Lacrosse 5 rocket 0.9 23:39:19 10° SW 23:43:02 85° SE 23:45:31 19° NE
CZ-2D R/B 4.1 23:40:25 10° SE 23:43:38 27° ENE 23:46:52 10° NNE
Cosmos 2181 Rocket 4.1 23:37:46 10° S 23:44:06 64° E 23:50:26 10° NNE
COSMO-SKYMED 1 2.7 23:41:03 10° NNE 23:45:18 53° E 23:49:32 10° S
Okean-O 3.6 23:44:44 10° ESE 23:48:18 24° ENE 23:51:52 10° NNE
Sich 1 3.1 23:45:12 10° N 23:49:35 82° W 23:53:55 10° S
USA 267 4.1 23:47:07 18° ENE 23:50:50 30° NNE 23:56:20 10° NNW
GENESIS II 4.3 23:50:33 10° NNW 23:54:29 77° WSW 23:58:20 10° SSE
